• în Republica Moldova
  • Lista ţărilor
  • Pe 7 zile
  • Temperatura apei
  • Hartă satelitară
  • Meteo pe hartă
  • Widget-uri
  • user-avatar
    Intrare

    Meteo pe oră la Barinas

    Astăzi, 23 Ianuarie, Miercuri

    Timp Temperatura Precipitaţii Vânt Presiune Umiditate
    00:00 +27°C° 0 mm 3 m/s 745 mmHg 35%
    01:00 +26°C° 0 mm 2 m/s 745 mmHg 34%
    02:00 +26°C° 0 mm 2 m/s 745 mmHg 37%
    03:00 +26°C° 0 mm 2 m/s 745 mmHg 40%
    04:00 +25°C° 0 mm 2 m/s 745 mmHg 44%
    05:00 +26°C° 0 mm 2 m/s 746 mmHg 46%
    06:00 +26°C° 0 mm 2 m/s 746 mmHg 48%
    07:00 +26°C° 0 mm 2 m/s 746 mmHg 50%
    08:00 +28°C° 0 mm 2 m/s 746 mmHg 48%
    09:00 +30°C° 0 mm 3 m/s 747 mmHg 46%
    10:00 +31°C° 0 mm 3 m/s 747 mmHg 44%
    11:00 +34°C° 0 mm 3 m/s 746 mmHg 40%
    12:00 +35°C° 0 mm 3 m/s 745 mmHg 37%
    13:00 +36°C° 0 mm 3 m/s 744 mmHg 34%
    14:00 +36°C° 0 mm 3 m/s 743 mmHg 34%
    15:00 +35°C° 0 mm 3 m/s 743 mmHg 33%
    16:00 +35°C° 0 mm 3 m/s 742 mmHg 33%
    17:00 +33°C° 0 mm 3 m/s 742 mmHg 34%
    18:00 +30°C° 0 mm 3 m/s 742 mmHg 36%
    19:00 +28°C° 0 mm 4 m/s 743 mmHg 37%
    20:00 +28°C° 0 mm 4 m/s 743 mmHg 35%
    21:00 +28°C° 0 mm 4 m/s 744 mmHg 34%
    22:00 +28°C° 0 mm 4 m/s 744 mmHg 32%
    23:00 +28°C° 0 mm 3 m/s 744 mmHg 36%

    Mâine, 24 Ianuarie, Joi

    Timp Temperatura Precipitaţii Vânt Presiune Umiditate
    00:00 +28°C° 0 mm 3 m/s 744 mmHg 40%
    01:00 +28°C° 0 mm 3 m/s 744 mmHg 44%
    02:00 +27°C° 0 mm 3 m/s 744 mmHg 47%
    03:00 +27°C° 0 mm 3 m/s 744 mmHg 50%
    04:00 +27°C° 0 mm 3 m/s 744 mmHg 54%
    05:00 +27°C° 0 mm 3 m/s 744 mmHg 56%
    06:00 +27°C° 0 mm 3 m/s 745 mmHg 58%
    07:00 +27°C° 0 mm 3 m/s 745 mmHg 60%
    08:00 +28°C° 0 mm 3 m/s 746 mmHg 56%
    09:00 +30°C° 0 mm 4 m/s 746 mmHg 51%
    10:00 +33°C° 0 mm 4 m/s 746 mmHg 47%
    11:00 +34°C° 0 mm 4 m/s 745 mmHg 43%
    12:00 +35°C° 0 mm 3 m/s 744 mmHg 39%
    13:00 +36°C° 0 mm 3 m/s 743 mmHg 35%
    14:00 +36°C° 0 mm 3 m/s 743 mmHg 35%
    15:00 +36°C° 0 mm 3 m/s 742 mmHg 34%
    16:00 +36°C° 0 mm 3 m/s 741 mmHg 34%
    17:00 +34°C° 0 mm 3 m/s 742 mmHg 37%
    18:00 +31°C° 0 mm 3 m/s 742 mmHg 41%
    19:00 +29°C° 0 mm 3 m/s 742 mmHg 44%
    20:00 +29°C° 0 mm 3 m/s 743 mmHg 44%
    21:00 +28°C° 0 mm 3 m/s 743 mmHg 43%
    22:00 +28°C° 0 mm 3 m/s 744 mmHg 43%
    23:00 +28°C° 0 mm 3 m/s 744 mmHg 45%

    Poimâine, 25 Ianuarie, Vineri

    Timp Temperatura Precipitaţii Vânt Presiune Umiditate
    00:00 +28°C° 0 mm 3 m/s 744 mmHg 48%
    01:00 +27°C° 0 mm 3 m/s 744 mmHg 50%
    02:00 +27°C° 0 mm 3 m/s 743 mmHg 53%
    03:00 +27°C° 0 mm 2 m/s 743 mmHg 56%
    04:00 +26°C° 0 mm 2 m/s 743 mmHg 59%
    05:00 +26°C° 0 mm 2 m/s 744 mmHg 59%
    06:00 +27°C° 0 mm 2 m/s 744 mmHg 59%
    07:00 +27°C° 0 mm 2 m/s 745 mmHg 60%
    08:00 +28°C° 0 mm 3 m/s 745 mmHg 58%
    09:00 +29°C° 0 mm 3 m/s 745 mmHg 56%
    10:00 +30°C° 0 mm 4 m/s 746 mmHg 54%
    11:00 +32°C° 0 mm 4 m/s 745 mmHg 49%
    12:00 +34°C° 0 mm 3 m/s 744 mmHg 43%
    13:00 +36°C° 0 mm 3 m/s 743 mmHg 38%
    14:00 +36°C° 0 mm 3 m/s 742 mmHg 37%
    15:00 +36°C° 0 mm 3 m/s 741 mmHg 36%
    16:00 +36°C° 0 mm 3 m/s 740 mmHg 36%
    17:00 +34°C° 0 mm 2 m/s 741 mmHg 40%
    18:00 +32°C° 0 mm 2 m/s 741 mmHg 44%
    19:00 +30°C° 0 mm 2 m/s 742 mmHg 48%
    20:00 +29°C° 0 mm 2 m/s 742 mmHg 50%
    21:00 +29°C° 0 mm 2 m/s 743 mmHg 51%
    22:00 +28°C° 0 mm 2 m/s 743 mmHg 53%
    23:00 +28°C° 0 mm 2 m/s 743 mmHg 54%

    26 Ianuarie, Sâmbătă

    Timp Temperatura Precipitaţii Vânt Presiune Umiditate
    00:00 +27°C° 0 mm 2 m/s 743 mmHg 55%
    01:00 +27°C° 0 mm 2 m/s 743 mmHg 56%
    02:00 +27°C° 0 mm 2 m/s 743 mmHg 57%
    03:00 +26°C° 0 mm 1 m/s 743 mmHg 57%
    04:00 +26°C° 0 mm 1 m/s 743 mmHg 58%
    05:00 +26°C° 0 mm 2 m/s 743 mmHg 58%
    06:00 +26°C° 0 mm 2 m/s 744 mmHg 58%
    07:00 +27°C° 0 mm 2 m/s 745 mmHg 58%
    08:00 +28°C° 0 mm 3 m/s 745 mmHg 53%
    09:00 +30°C° 0 mm 3 m/s 745 mmHg 49%
    10:00 +33°C° 0 mm 4 m/s 745 mmHg 44%
    11:00 +34°C° 0 mm 4 m/s 744 mmHg 41%
    12:00 +35°C° 0 mm 4 m/s 743 mmHg 38%
    13:00 +36°C° 0 mm 3 m/s 742 mmHg 35%
    14:00 +36°C° 0 mm 3 m/s 741 mmHg 35%
    15:00 +36°C° 0 mm 3 m/s 741 mmHg 34%
    16:00 +37°C° 0 mm 3 m/s 740 mmHg 34%
    17:00 +35°C° 0 mm 2 m/s 740 mmHg 38%
    18:00 +32°C° 0 mm 2 m/s 741 mmHg 42%
    19:00 +30°C° 0 mm 2 m/s 741 mmHg 46%
    20:00 +29°C° 0 mm 2 m/s 741 mmHg 48%
    21:00 +28°C° 0 mm 2 m/s 742 mmHg 50%
    22:00 +28°C° 0 mm 2 m/s 742 mmHg 52%
    23:00 +27°C° 0 mm 2 m/s 742 mmHg 53%

    27 Ianuarie, Duminică

    Timp Temperatura Precipitaţii Vânt Presiune Umiditate
    00:00 +27°C° 0 mm 2 m/s 742 mmHg 54%
    01:00 +27°C° 0 mm 2 m/s 742 mmHg 55%
    02:00 +26°C° 0 mm 2 m/s 742 mmHg 55%
    03:00 +26°C° 0 mm 2 m/s 742 mmHg 54%
    04:00 +26°C° 0 mm 2 m/s 742 mmHg 54%
    05:00 +26°C° 0 mm 2 m/s 743 mmHg 54%
    06:00 +26°C° 0 mm 2 m/s 743 mmHg 54%
    07:00 +26°C° 0 mm 2 m/s 744 mmHg 54%
    08:00 +28°C° 0 mm 2 m/s 744 mmHg 49%
    09:00 +30°C° 0 mm 3 m/s 744 mmHg 45%
    10:00 +34°C° 0 mm 3 m/s 745 mmHg 40%
    11:00 +35°C° 0 mm 3 m/s 744 mmHg 38%
    12:00 +36°C° 0 mm 3 m/s 743 mmHg 35%
    13:00 +37°C° 0 mm 3 m/s 742 mmHg 33%
    14:00 +37°C° 0 mm 3 m/s 741 mmHg 32%
    15:00 +37°C° 0 mm 3 m/s 740 mmHg 32%
    16:00 +37°C° 0 mm 3 m/s 740 mmHg 32%
    17:00 +35°C° 0 mm 2 m/s 740 mmHg 35%
    18:00 +32°C° 0 mm 2 m/s 740 mmHg 39%
    19:00 +30°C° 0 mm 2 m/s 741 mmHg 43%
    20:00 +30°C° 0 mm 2 m/s 741 mmHg 45%
    21:00 +29°C° 0 mm 2 m/s 742 mmHg 46%
    22:00 +29°C° 0 mm 2 m/s 742 mmHg 48%
    23:00 +28°C° 0 mm 2 m/s 742 mmHg 48%

    28 Ianuarie, Luni

    Timp Temperatura Precipitaţii Vânt Presiune Umiditate
    00:00 +28°C° 0 mm 2 m/s 742 mmHg 49%
    01:00 +28°C° 0 mm 2 m/s 742 mmHg 49%
    02:00 +28°C° 0 mm 2 m/s 742 mmHg 51%
    03:00 +27°C° 0 mm 2 m/s 742 mmHg 52%
    04:00 +27°C° 0 mm 2 m/s 742 mmHg 53%
    05:00 +27°C° 0 mm 2 m/s 742 mmHg 54%
    06:00 +27°C° 0 mm 2 m/s 743 mmHg 54%
    07:00 +27°C° 0 mm 2 m/s 743 mmHg 54%
    08:00 +29°C° 0 mm 2 m/s 744 mmHg 50%
    09:00 +31°C° 0 mm 3 m/s 744 mmHg 46%
    10:00 +34°C° 0 mm 3 m/s 744 mmHg 42%
    11:00 +34°C° 0 mm 3 m/s 743 mmHg 41%
    12:00 +35°C° 0 mm 3 m/s 742 mmHg 39%
    13:00 +36°C° 0 mm 3 m/s 741 mmHg 38%
    14:00 +36°C° 0 mm 2 m/s 741 mmHg 37%
    15:00 +36°C° 0 mm 2 m/s 740 mmHg 36%
    16:00 +37°C° 0 mm 2 m/s 740 mmHg 35%
    17:00 +35°C° 0 mm 2 m/s 740 mmHg 39%
    18:00 +32°C° 0 mm 2 m/s 740 mmHg 43%
    19:00 +30°C° 0 mm 2 m/s 740 mmHg 47%
    20:00 +30°C° 0 mm 2 m/s 741 mmHg 49%
    21:00 +29°C° 0 mm 2 m/s 741 mmHg 50%
    22:00 +28°C° 0 mm 2 m/s 742 mmHg 52%
    23:00 +28°C° 0 mm 2 m/s 742 mmHg 53%
    Arată mai mult